Content
SEND FEEDBACK

Daily
Averages
Monthly
Summary
Canada

BEDFORD, QUEBEC


Home > North America > Canada > Quebec
Elevation: 174 feet     Latitude: 45 28N     Longitude: 073 45W

WEATHER
 
SELECT A DAY
Number of Records: 198,145;   Date Range: 1/1/95 - 7/28/14
 
SHARE

PRINT THIS DATA

[ ← Previous Day ]
WEATHER ALMANAC - FEBRUARY 16, 2013
[ Next Day → ]
[ °C ]   °F
Weather ElementAverageHighLow
Temperature17.9 °F26 °F (1:00 am)12.2 °F (8:00 am)
Dewpoint6.5 °F18 °F (1:00 am)3.2 °F (10:00 am)
Humidity60 %74 % (1:00 am)40 % (1:00 pm)
Barometer30.03 in30.08 in (9:00 am)29.99 in (1:00 am)
Wind Speed10.8 mph17.3 mph (1:00 am)
Wind Gust20.7 mph (1:44 am)
Weather ElementAverage
Visibility22.1 mi
Wind DirectionWSW (263.7 °)

Weather ElementTotal
Precipitation---
Heating Degree Days45.9 (Base 65)
Averaged from 27 records on February 16, 2013
WEATHER CONDITIONS BREAKOUT
WIND DIRECTION BREAKOUT
WEATHER BY HOUR - FEBRUARY 16, 2013
[ °C ]   °F
Local TimeTemperatureDewpointHumidityBarometerVisibilityWind DirectionWind SpeedGust SpeedPrecipitationEventsConditions
1:00 AM26.0 °F18.0 °F61 %29.99 in15.0 miWest (260°)16.1 mphSnowLight Snow
1:00 AM24.8 °F17.6 °F74 %29.99 in15.0 miWest (270°)17.3 mphSnowLight Snow
1:44 AM23.0 °F12.2 °F63 %30.00 in15.0 miWest (260°)13.8 mph20.7 mphOvercast
2:00 AM23.0 °F12.2 °F63 %30.00 in15.0 miWest (260°)11.5 mphOvercast
3:00 AM19.4 °F10.4 °F68 %30.00 in15.0 miWSW (250°)15.0 mphMostly Cloudy
4:00 AM17.6 °F8.6 °F68 %30.01 in15.0 miWest (260°)11.5 mphScattered Clouds
5:00 AM15.8 °F6.8 °F68 %30.02 in15.0 miWSW (250°)12.7 mphPartly Cloudy
6:00 AM14.0 °F6.8 °F73 %30.03 in15.0 miWSW (250°)9.2 mphPartly Cloudy
7:00 AM14.0 °F5.0 °F67 %30.05 in15.0 miWest (260°)10.4 mphPartly Cloudy
8:00 AM12.2 °F5.0 °F73 %30.06 in15.0 miWest (260°)11.5 mphPartly Cloudy
9:00 AM14.0 °F5.0 °F67 %30.08 in30.0 miWSW (250°)8.1 mphPartly Cloudy
10:00 AM14.0 °F3.2 °F62 %30.07 in30.0 miWest (270°)9.2 mphScattered Clouds
11:00 AM15.8 °F3.2 °F58 %30.07 in30.0 miWest (280°)12.7 mphMostly Cloudy
12:00 PM17.6 °F5.0 °F58 %30.06 in30.0 miWSW (250°)8.1 mphPartly Cloudy
1:00 PM20.0 °F6.0 °F40 %30.05 in28.0 miWest (260°)11.5 mphClear
1:00 PM19.4 °F5.0 °F54 %30.04 in30.0 miWest (270°)11.5 mphPartly Cloudy
2:00 PM19.4 °F3.2 °F49 %30.03 in30.0 miWest (280°)12.7 mphMostly Cloudy
3:00 PM21.2 °F5.0 °F50 %30.02 in30.0 miSW (230°)8.1 mphMostly Cloudy
4:00 PM21.2 °F5.0 °F50 %30.02 in30.0 miWest (260°)10.4 mphPartly Cloudy
5:00 PM19.4 °F5.0 °F54 %30.02 in30.0 miWSW (250°)11.5 mphPartly Cloudy
6:00 PM17.6 °F5.0 °F58 %30.03 in30.0 miWSW (250°)10.4 mphPartly Cloudy
7:00 PM17.0 °F4.0 °F43 %30.04 in28.0 miWest (270°)9.2 mphClear
7:00 PM17.6 °F5.0 °F58 %30.04 in30.0 miWest (270°)9.2 mphPartly Cloudy
8:00 PM15.8 °F3.2 °F58 %30.04 in15.0 miWest (270°)10.4 mphScattered Clouds
9:00 PM15.8 °F3.2 °F58 %30.03 in15.0 miWest (280°)5.8 mphScattered Clouds
10:00 PM14.0 °F3.2 °F62 %30.02 in15.0 miWNW (300°)5.8 mphScattered Clouds
11:00 PM14.0 °F3.2 °F62 %30.00 in15.0 miWNW (300°)6.9 mphMostly Cloudy
Hourly data recorded from CYUL, located miles away from Bedford, Quebec







STORIES FROM OUR PARTNERS